Change the Weather History Date:

Friday, July 5, 2013

  Actual Average Record
Temperature  
Mean Temperature 83 °F 82 °F  
Max Temperature 89 °F 92 °F 100 °F (1902)
Min Temperature 76 °F 72 °F 63 °F (1947)
Degree Days  
Heating Degree Days 0 0  
Month to date heating degree days 0 0  
Since 1 June heating degree days 0 0  
Since 1 July heating degree days 0 0  
Cooling Degree Days 18 17  
Month to date cooling degree days 79 85  
Year to date cooling degree days 905 934  
Since 1 June cooling degree days 547 531  
Growing Degree Days 32 (Base 50)    
Moisture  
Dew Point 74 °F    
Average Humidity 77    
Maximum Humidity 94    
Minimum Humidity 59    
Precipitation  
Precipitation 0.06 in 0.17 in 2.89 in (1996)
Month to date precipitation 1.76 0.83  
Year to date precipitation 29.58 23.04  
Sea Level Pressure  
Sea Level Pressure 30.18 in    
Wind  
Wind Speed 9 mph (SE)    
Max Wind Speed 26 mph    
Max Gust Speed 32 mph    
Visibility 10 miles    
Events Rain    
T = Trace of Precipitation, MM = Missing Value Source: NWS Daily Summary

Daily Weather History Graph

Daily Weather History Graph

Search for Another Location

Airport or City:

Trip Planner

Search our weather history database for the weather conditions in past years. The results will help you decide how hot, cold, wet, or windy it might be!

Date:

Astronomy

Jul. 05, 2013 Rise Set
Actual Time 6:23 AM EDT 8:34 PM EDT
Civil Twilight 5:55 AM EDT 9:02 PM EDT
Nautical Twilight 5:21 AM EDT 9:37 PM EDT
Astronomical Twilight 4:44 AM EDT 10:14 PM EDT
Moon 4:18 AM EDT (7/5) 6:31 PM EDT (7/5)
Length of Visible Light 15h 07m
Length of Day
14h 10m
Waning Crescent, 6% of the Moon is Illuminated
Jul 5
Waning Crescent
Jul 8
New
Jul 15
First Quarter
Jul 22
Full
Jul 29
Last Quarter

Hourly Weather History & Observations

Time (EDT) Temp. Heat Index Dew Point Humidity Pressure Visibility Wind Dir Wind Speed Gust Speed Precip Events Conditions
12:53 AM 80.1 °F 84.5 °F 73.9 °F 81% 30.19 in 10.0 mi SSE 8.1 mph - N/A   Partly Cloudy
1:53 AM 78.1 °F - 75.0 °F 90% 30.19 in 10.0 mi South 4.6 mph - N/A   Scattered Clouds
2:53 AM 78.1 °F - 75.0 °F 90% 30.18 in 10.0 mi SSE 3.5 mph - N/A   Partly Cloudy
3:53 AM 78.1 °F - 75.0 °F 90% 30.16 in 10.0 mi SSE 5.8 mph - N/A   Clear
4:53 AM 75.9 °F - 73.9 °F 94% 30.17 in 10.0 mi Calm Calm - N/A   Partly Cloudy
5:53 AM 75.9 °F - 73.9 °F 94% 30.18 in 10.0 mi Calm Calm - N/A   Mostly Cloudy
6:42 AM 77.0 °F - 75.2 °F 94% 30.19 in 10.0 mi Calm Calm - N/A   Mostly Cloudy
6:53 AM 78.1 °F - 75.0 °F 90% 30.19 in 10.0 mi Calm Calm - N/A   Mostly Cloudy
7:53 AM 79.0 °F - 75.9 °F 90% 30.20 in 10.0 mi ESE 5.8 mph - 0.01 in   Mostly Cloudy
8:53 AM 81.0 °F 87.3 °F 75.9 °F 85% 30.21 in 4.0 mi Calm Calm - 0.02 in Rain Light Rain
9:53 AM 82.0 °F 89.4 °F 75.9 °F 82% 30.21 in 10.0 mi SSE 10.4 mph - 0.00 in   Mostly Cloudy
10:53 AM 84.9 °F 93.3 °F 75.0 °F 72% 30.21 in 10.0 mi SE 11.5 mph - N/A   Overcast
11:53 AM 87.1 °F 94.5 °F 73.0 °F 63% 30.20 in 10.0 mi SSE 15.0 mph 20.7 mph N/A   Mostly Cloudy
12:53 PM 89.1 °F 97.0 °F 73.0 °F 59% 30.19 in 10.0 mi SE 15.0 mph 20.7 mph N/A   Mostly Cloudy
1:53 PM 87.1 °F 94.5 °F 73.0 °F 63% 30.19 in 10.0 mi SE 16.1 mph - 0.00 in   Mostly Cloudy
2:53 PM 87.1 °F 94.5 °F 73.0 °F 63% 30.16 in 10.0 mi SE 15.0 mph 21.9 mph N/A   Mostly Cloudy
3:16 PM 82.4 °F 89.5 °F 75.2 °F 79% 30.16 in 8.0 mi SE 15.0 mph - 0.00 in Rain Light Rain
3:35 PM 84.2 °F 92.3 °F 75.2 °F 74% 30.16 in 10.0 mi SE 11.5 mph - 0.00 in Rain Light Rain
3:53 PM 84.9 °F 92.1 °F 73.9 °F 69% 30.15 in 10.0 mi SE 16.1 mph 24.2 mph 0.00 in Rain Light Rain
4:53 PM 84.0 °F 91.9 °F 75.0 °F 74% 30.14 in 10.0 mi SE 13.8 mph - 0.03 in   Mostly Cloudy
5:53 PM 82.9 °F 89.4 °F 73.9 °F 74% 30.14 in 10.0 mi SSE 19.6 mph 25.3 mph 0.00 in   Mostly Cloudy
6:53 PM 82.0 °F 87.9 °F 73.9 °F 76% 30.16 in 10.0 mi SSE 15.0 mph - 0.00 in   Mostly Cloudy
7:53 PM 81.0 °F 85.8 °F 73.0 °F 77% 30.17 in 10.0 mi South 13.8 mph - N/A   Mostly Cloudy
8:53 PM 80.1 °F 83.8 °F 72.0 °F 76% 30.18 in 10.0 mi SSE 6.9 mph - N/A   Mostly Cloudy
9:53 PM 79.0 °F - 73.0 °F 82% 30.19 in 10.0 mi SE 4.6 mph - N/A   Scattered Clouds
10:53 PM 78.1 °F - 73.0 °F 84% 30.20 in 10.0 mi SE 3.5 mph - N/A   Scattered Clouds
11:53 PM 78.1 °F - 73.0 °F 84% 30.20 in 10.0 mi ESE 3.5 mph - N/A   Partly Cloudy